Location: *
(2.5500°S, 65.9667°W)
Time: 06:23:06
(UTC+00:00)

Tiros 1 despin weight - Pass Details

Date: 19 April 2024
Orbit: 578 x 621 km, 48.2° (Epoch: 25 May)

Event Time Altitude Azimuth Distance (km) Brightness Sun altitude
Rises 14:16:09 0° 225° (SW) 2,786 ? 55.5°
Reaches altitude 10° 14:18:26 10° 228° (SW) 1,887 ? 56.0°
Maximum altitude 14:22:42 63° 309° (NW) 648 ? 57.0°
Drops below altitude 10° 14:27:00 10° 30° (NNE) 1,895 ? 58.0°
Sets 14:29:18 0° 33° (NNE) 2,799 ? 58.5°
